GW5483 Weather Reports


time (UTC)temp
C
wind
direction
speed
KPH
gust
KPH
rain 1hr
cm
rain 24hr
cm
rain mn
cm
humidity
%
barometer
mb
20260503194908 17 116 4.8 9.7 0.00 0.00 0.00 71 1010.0
20260503194410 16 105 4.8 11.3 0.00 0.00 0.00 73 1010.0
20260503193909 16 125 3.2 9.7 0.00 0.00 0.00 73 1010.0
20260503193407 16 138 6.4 9.7 0.00 0.00 0.00 71 1010.0
20260503192908 16 101 8.0 11.3 0.00 0.00 0.00 70 1010.0
20260503192409 16 121 6.4 9.7 0.00 0.00 0.00 69 1010.0
20260503191907 16 117 4.8 8.0 0.00 0.00 0.00 69 1010.0
20260503191409 16 103 8.0 9.7 0.00 0.00 0.00 69 1010.0
20260503190907 16 105 3.2 9.7 0.00 0.00 0.00 69 1010.0
20260503190411 16 98 4.8 8.0 0.00 0.00 0.00 70 1010.0
20260503185907 16 123 6.4 8.0 0.00 0.00 0.00 69 1010.0
20260503185408 16 84 4.8 8.0 0.00 0.00 0.00 67 1010.0
20260503184907 16 99 3.2 6.4 0.00 0.00 0.00 68 1010.0
20260503184408 16 100 3.2 6.4 0.00 0.00 0.00 71 1010.0
20260503183907 15 94 1.6 6.4 0.00 0.00 0.00 71 1010.0
20260503183409 15 107 1.6 8.0 0.00 0.00 0.00 74 1010.0
20260503182908 15 103 4.8 8.0 0.00 0.00 0.00 73 1010.0
20260503182407 15 106 4.8 9.7 0.00 0.00 0.00 74 1010.0
20260503181908 15 97 6.4 11.3 0.00 0.00 0.00 76 1010.0
20260503181408 14 69 6.4 11.3 0.00 0.00 0.00 78 1010.0
20260503180907 14 68 8.0 14.5 0.00 0.00 0.00 77 1010.0
20260503180407 14 160 3.2 12.9 0.00 0.00 0.00 78 1010.0
20260503175909 14 73 4.8 9.7 0.00 0.00 0.00 79 1010.0
20260503175408 14 125 4.8 11.3 0.00 0.00 0.00 79 1010.0
20260503174908 15 129 6.4 11.3 0.00 0.00 0.00 77 1010.0
20260503174407 15 107 4.8 11.3 0.00 0.00 0.00 78 1010.0
20260503173907 15 114 4.8 9.7 0.00 0.00 0.00 79 1010.0
20260503173407 15 136 8.0 12.9 0.00 0.00 0.00 76 1010.0
20260503172908 15 121 8.0 8.0 0.00 0.00 0.00 76 1010.0
20260503172407 15 112 3.2 8.0 0.00 0.00 0.00 77 1010.0
20260503171907 15 94 4.8 9.7 0.00 0.00 0.00 77 1010.0
20260503171408 15 82 3.2 11.3 0.00 0.00 0.00 75 1010.0
20260503170908 15 107 4.8 8.0 0.00 0.00 0.00 75 1010.0
20260503170408 15 100 3.2 9.7 0.00 0.00 0.00 76 1010.0
20260503150910 13 108 4.8 6.4 0.00 0.00 0.00 82 1009.0
20260503150408 13 128 3.2 6.4 0.00 0.00 0.00 82 1009.0
20260503131407 12 86 3.2 6.4 0.00 0.00 0.00 80 1008.0
20260503130907 12 110 1.6 8.0 0.00 0.00 0.00 80 1008.0
20260503130409 12 106 3.2 6.4 0.00 0.00 0.00 80 1008.0
20260503110407 12 122 8.0 8.0 0.00 0.00 0.00 81 1008.0
20260503090408 12 107 3.2 9.7 0.00 0.00 0.00 82 1008.0
20260503081408 12 107 4.8 8.0 0.00 0.00 0.00 82 1008.0
20260503080907 12 83 3.2 4.8 0.00 0.00 0.00 81 1008.0
20260503080407 12 145 1.6 4.8 0.00 0.00 0.00 81 1009.0
20260503072909 12 99 4.8 8.0 0.00 0.00 0.00 81 1008.0
20260503072407 12 76 3.2 8.0 0.00 0.00 0.00 81 1008.0
20260503071907 12 136 3.2 4.8 0.00 0.00 0.00 81 1009.0
20260503071408 12 78 3.2 4.8 0.00 0.00 0.00 81 1008.0
20260503070907 12 92 4.8 6.4 0.00 0.00 0.00 82 1009.0
20260503070407 12 81 1.6 4.8 0.00 0.00 0.00 82 1009.0
20260503054909 13 102 3.2 4.8 0.00 0.00 0.00 82 1009.0
20260503054407 13 117 3.2 4.8 0.00 0.00 0.00 82 1009.0
20260503053907 13 113 3.2 4.8 0.00 0.00 0.00 82 1009.0
20260503053409 13 94 3.2 6.4 0.00 0.00 0.00 82 1009.0
20260503052907 13 73 1.6 4.8 0.00 0.00 0.00 82 1009.0
20260503052408 13 127 3.2 4.8 0.00 0.00 0.00 82 1009.0
20260503051908 13 67 1.6 6.4 0.00 0.00 0.00 81 1009.0
20260503051412 13 134 4.8 4.8 0.00 0.00 0.00 82 1009.0
20260503050907 13 43 0.0 6.4 0.00 0.00 0.00 82 1009.0
20260503050408 13 130 3.2 4.8 0.00 0.00 0.00 82 1009.0
20260503045907 13 111 4.8 8.0 0.00 0.00 0.00 82 1009.0
20260503045408 13 106 3.2 4.8 0.00 0.00 0.00 81 1009.0
20260503044907 13 124 1.6 4.8 0.00 0.00 0.00 80 1009.0
20260503044407 13 114 0.0 4.8 0.00 0.00 0.00 80 1009.0
20260503043908 13 101 4.8 6.4 0.00 0.00 0.00 80 1009.0
20260503043409 13 108 3.2 4.8 0.00 0.00 0.00 80 1009.0
20260503042910 13 89 3.2 6.4 0.00 0.00 0.00 80 1009.0
20260503042407 13 107 3.2 8.0 0.00 0.00 0.00 80 1009.0
20260503041908 13 106 4.8 8.0 0.00 0.00 0.00 80 1009.0
20260503041407 13 57 4.8 8.0 0.00 0.00 0.00 81 1009.0
20260503040907 13 91 6.4 8.0 0.00 0.00 0.00 81 1009.0
20260503040408 13 150 1.6 4.8 0.00 0.00 0.00 81 1009.0
20260503035908 13 138 3.2 6.4 0.00 0.00 0.00 81 1009.0
20260503035407 13 107 1.6 4.8 0.00 0.00 0.00 81 1009.0
20260503034908 13 74 3.2 4.8 0.00 0.00 0.00 82 1009.0
20260503034407 13 96 3.2 8.0 0.00 0.00 0.00 82 1009.0
20260503033908 13 99 3.2 4.8 0.00 0.00 0.00 82 1009.0
20260503033408 13 114 3.2 6.4 0.00 0.00 0.00 82 1008.0
20260503032907 13 82 1.6 8.0 0.00 0.00 0.00 82 1008.0
20260503032407 13 140 4.8 8.0 0.00 0.00 0.00 82 1008.0
20260503031909 13 85 1.6 6.4 0.00 0.00 0.00 82 1008.0
20260503031409 13 164 1.6 6.4 0.00 0.00 0.00 82 1008.0
20260503030907 13 130 3.2 9.7 0.00 0.00 0.00 82 1008.0
20260503030409 13 84 3.2 8.0 0.00 0.00 0.00 82 1008.0
20260503025907 13 104 4.8 8.0 0.00 0.00 0.00 82 1008.0
20260503025407 13 121 6.4 8.0 0.00 0.00 0.00 82 1008.0
20260503024907 13 167 3.2 4.8 0.00 0.00 0.00 82 1008.0
20260503024407 13 131 4.8 8.0 0.00 0.00 0.00 82 1008.0
20260503023908 13 122 8.0 9.7 0.00 0.00 0.00 81 1008.0
20260503023407 13 119 3.2 8.0 0.00 0.00 0.00 81 1008.0
20260503022907 13 76 4.8 6.4 0.00 0.00 0.00 80 1008.0
20260503022407 13 113 4.8 9.7 0.00 0.00 0.00 80 1008.0
20260503021907 13 125 4.8 8.0 0.00 0.00 0.00 80 1008.0
20260503021407 13 133 6.4 8.0 0.00 0.00 0.00 80 1008.0
20260503020909 13 126 4.8 9.7 0.00 0.00 0.00 81 1008.0
20260503020407 13 124 4.8 11.3 0.00 0.00 0.00 80 1008.0
20260503015909 13 144 3.2 9.7 0.00 0.00 0.00 80 1008.0
20260503015407 13 101 3.2 11.3 0.00 0.00 0.00 79 1008.0
20260503014907 13 150 3.2 8.0 0.00 0.00 0.00 79 1008.0
20260503014408 13 126 8.0 12.9 0.00 0.00 0.00 79 1008.0
20260503013907 13 56 3.2 11.3 0.00 0.00 0.00 79 1008.0
20260503013407 14 131 4.8 9.7 0.00 0.00 0.00 78 1008.0
20260503012907 14 119 4.8 8.0 0.00 0.00 0.00 78 1008.0
20260503012410 14 142 4.8 4.8 0.00 0.00 0.00 78 1008.0
20260503011907 14 98 4.8 8.0 0.00 0.00 0.00 78 1008.0
20260503011407 14 82 4.8 11.3 0.00 0.00 0.00 77 1008.0
20260503010907 14 95 3.2 14.5 0.00 0.00 0.00 76 1008.0
20260503010407 14 112 4.8 9.7 0.00 0.00 0.00 76 1008.0
20260503005909 14 102 6.4 8.0 0.00 0.00 0.00 75 1009.0
20260503005407 15 106 4.8 9.7 0.00 0.00 0.00 75 1008.0
20260503004907 15 104 1.6 14.5 0.00 0.00 0.00 75 1008.0
20260503004407 15 124 6.4 16.1 0.00 0.00 0.00 74 1008.0
20260503003907 15 89 8.0 11.3 0.00 0.00 0.00 73 1008.0
20260503003408 15 120 8.0 11.3 0.00 0.00 0.00 73 1008.0
20260503002907 15 91 6.4 8.0 0.00 0.00 0.00 73 1008.0
20260503002407 15 106 4.8 9.7 0.00 0.00 0.00 73 1008.0
20260503001907 15 100 6.4 12.9 0.00 0.00 0.00 73 1009.0
20260503001407 15 103 8.0 11.3 0.00 0.00 0.00 72 1009.0
20260503000908 15 96 8.0 11.3 0.00 0.00 0.00 73 1009.0
20260503000411 15 101 8.0 9.7 0.00 0.00 0.00 72 1009.0
20260502235908 16 105 8.0 9.7 0.00 0.00 0.00 72 1009.0
20260502235408 16 93 3.2 11.3 0.00 0.00 0.00 70 1009.0
20260502234908 16 68 4.8 11.3 0.00 0.00 0.00 72 1009.0
20260502234407 15 91 4.8 11.3 0.00 0.00 0.00 72 1009.0
20260502233907 16 102 4.8 11.3 0.00 0.00 0.00 73 1009.0
20260502233407 16 113 8.0 11.3 0.00 0.00 0.00 72 1009.0
20260502232907 16 98 8.0 11.3 0.00 0.00 0.00 73 1009.0
20260502232408 16 98 9.7 12.9 0.00 0.00 0.00 73 1009.0
20260502231907 15 86 4.8 16.1 0.00 0.00 0.00 74 1009.0
20260502231407 15 63 12.9 12.9 0.00 0.00 0.00 74 1009.0
20260502230907 15 83 9.7 16.1 0.00 0.00 0.00 75 1009.0
20260502230407 15 103 9.7 14.5 0.00 0.00 0.00 74 1009.0
20260502225907 15 84 8.0 14.5 0.00 0.00 0.00 74 1009.0
20260502225407 15 86 8.0 12.9 0.00 0.00 0.00 74 1009.0
20260502224908 15 115 8.0 11.3 0.00 0.00 0.00 74 1010.0
20260502224409 15 92 3.2 14.5 0.00 0.00 0.00 73 1009.0
20260502223907 15 120 8.0 12.9 0.00 0.00 0.00 73 1010.0
20260502223407 15 94 6.4 12.9 0.00 0.00 0.00 74 1010.0
20260502222907 15 108 8.0 14.5 0.00 0.00 0.00 73 1010.0
20260502222407 16 82 8.0 14.5 0.00 0.00 0.00 72 1010.0
20260502221908 16 101 4.8 8.0 0.00 0.00 0.00 73 1010.0
20260502221407 15 108 6.4 17.7 0.00 0.00 0.00 74 1010.0
20260502220907 16 87 6.4 12.9 0.00 0.00 0.00 72 1010.0
20260502220408 15 93 4.8 8.0 0.00 0.00 0.00 74 1010.0
20260502215907 15 110 4.8 17.7 0.00 0.00 0.00 73 1010.0
20260502215407 15 69 14.5 19.3 0.00 0.00 0.00 74 1010.0
20260502214907 15 100 12.9 14.5 0.00 0.00 0.00 73 1010.0
20260502214407 15 110 4.8 8.0 0.00 0.00 0.00 74 1010.0
20260502213907 15 91 3.2 12.9 0.00 0.00 0.00 74 1010.0
20260502213407 15 100 6.4 11.3 0.00 0.00 0.00 73 1010.0
20260502212907 15 110 11.3 24.1 0.00 0.00 0.00 73 1010.0
20260502212407 15 72 6.4 11.3 0.00 0.00 0.00 71 1010.0
20260502211907 16 108 12.9 14.5 0.00 0.00 0.00 71 1010.0
20260502211408 15 104 4.8 14.5 0.00 0.00 0.00 72 1010.0
20260502210907 16 98 9.7 16.1 0.00 0.00 0.00 70 1010.0
20260502210407 15 92 4.8 11.3 0.00 0.00 0.00 75 1010.0
20260502205907 15 97 8.0 12.9 0.00 0.00 0.00 75 1010.0
20260502205408 15 98 9.7 14.5 0.00 0.00 0.00 73 1011.0
20260502204907 15 96 3.2 11.3 0.00 0.00 0.00 73 1011.0
20260502204408 16 97 4.8 12.9 0.00 0.00 0.00 73 1011.0
20260502203907 15 95 9.7 12.9 0.00 0.00 0.00 74 1011.0
20260502203407 15 89 11.3 11.3 0.00 0.00 0.00 74 1011.0
20260502202907 15 89 6.4 11.3 0.00 0.00 0.00 74 1011.0
20260502202408 15 123 4.8 9.7 0.00 0.00 0.00 75 1011.0
20260502201907 15 114 4.8 11.3 0.00 0.00 0.00 76 1011.0
20260502201408 15 100 4.8 9.7 0.00 0.00 0.00 77 1011.0
20260502200908 15 121 12.9 14.5 0.00 0.00 0.00 77 1011.0
20260502200408 15 116 3.2 11.3 0.00 0.00 0.00 79 1011.0
20260502195907 14 74 8.0 14.5 0.00 0.00 0.00 78 1011.0
20260502195407 14 139 8.0 9.7 0.00 0.00 0.00 79 1011.0